TimeEST,TemperatureF,Dew PointF,Humidity,Sea Level PressureIn,VisibilityMPH,Wind Direction,Wind SpeedMPH,Gust SpeedMPH,PrecipitationIn,Events,Conditions,WindDirDegrees,DateUTC
12:53 AM,63.0,60.1,90,29.84,10.0,SW,5.8,-,N/A,,Clear,220,2012-12-18 05:53:00
1:53 AM,62.1,60.1,93,29.85,10.0,WSW,5.8,-,N/A,,Clear,240,2012-12-18 06:53:00
2:53 AM,61.0,57.9,90,29.86,10.0,West,6.9,-,N/A,,Clear,260,2012-12-18 07:53:00
3:53 AM,61.0,57.0,87,29.87,10.0,WNW,8.1,-,N/A,,Clear,290,2012-12-18 08:53:00
4:53 AM,57.9,55.0,90,29.87,10.0,West,3.5,-,N/A,,Clear,270,2012-12-18 09:53:00
5:53 AM,53.1,51.1,93,29.89,6.0,West,3.5,-,N/A,,Clear,270,2012-12-18 10:53:00
6:53 AM,57.0,54.0,89,29.92,10.0,WNW,6.9,-,N/A,,Partly Cloudy,300,2012-12-18 11:53:00
7:10 AM,57.2,53.6,88,29.94,10.0,NW,5.8,-,N/A,,Mostly Cloudy,310,2012-12-18 12:10:00
7:36 AM,55.4,53.6,94,29.94,8.0,WNW,3.5,-,N/A,,Scattered Clouds,300,2012-12-18 12:36:00
7:53 AM,54.0,52.0,93,29.95,5.0,West,3.5,-,N/A,,Partly Cloudy,260,2012-12-18 12:53:00
8:53 AM,59.0,55.0,87,29.98,9.0,WNW,8.1,-,N/A,,Clear,300,2012-12-18 13:53:00
9:19 AM,59.0,55.4,88,29.99,10.0,NW,6.9,-,N/A,,Scattered Clouds,310,2012-12-18 14:19:00
9:53 AM,61.0,54.0,78,30.01,10.0,NW,9.2,-,N/A,,Partly Cloudy,320,2012-12-18 14:53:00
10:53 AM,64.0,52.0,65,30.01,10.0,NNW,6.9,-,N/A,,Partly Cloudy,330,2012-12-18 15:53:00
11:53 AM,66.9,46.0,47,30.00,10.0,NW,8.1,-,N/A,,Clear,320,2012-12-18 16:53:00
12:53 PM,69.1,39.0,33,29.99,10.0,WNW,10.4,-,N/A,,Clear,290,2012-12-18 17:53:00
1:53 PM,70.0,37.0,30,29.96,10.0,NNW,8.1,-,N/A,,Clear,330,2012-12-18 18:53:00
2:53 PM,71.1,39.0,31,29.96,10.0,North,9.2,-,N/A,,Clear,360,2012-12-18 19:53:00
3:53 PM,70.0,33.1,26,29.98,10.0,NW,9.2,-,N/A,,Clear,310,2012-12-18 20:53:00
4:53 PM,69.1,35.1,29,29.98,10.0,WNW,5.8,-,N/A,,Clear,300,2012-12-18 21:53:00
5:53 PM,57.9,41.0,53,30.00,10.0,NW,3.5,-,N/A,,Clear,310,2012-12-18 22:53:00
6:53 PM,55.0,41.0,59,30.01,10.0,Calm,Calm,-,N/A,,Clear,0,2012-12-18 23:53:00
7:53 PM,48.9,41.0,74,30.03,10.0,Calm,Calm,-,N/A,,Clear,0,2012-12-19 00:53:00
8:53 PM,46.9,39.9,77,30.03,10.0,Calm,Calm,-,N/A,,Clear,0,2012-12-19 01:53:00
9:53 PM,44.1,39.0,82,30.05,10.0,Calm,Calm,-,N/A,,Clear,0,2012-12-19 02:53:00
10:53 PM,45.0,39.0,80,30.05,10.0,Calm,Calm,-,N/A,,Clear,0,2012-12-19 03:53:00
11:53 PM,41.0,37.0,86,30.06,10.0,Calm,Calm,-,N/A,,Clear,0,2012-12-19 04:53:00